(73427) = 1999 TV240 = 2002 LH42

Discovered at Socorro on 2002-06-10 by LINEAR.

Orbit

Orbit type: Main Belt

Note: WebGL enabled browser required.

epoch2024-03-31.0
epoch JD2460400.5
perihelion date2021-10-17.07934
perihelion JD2459504.57934
argument of perihelion (°)152.87791
ascending node (°)148.95026
inclination (°)7.18793
eccentricity0.1173281
perihelion distance (AU)2.1469898
Tisserand w.r.t. Jupiter3.5
ΔV w.r.t. Earth (km/sec)9.4
semimajor axis (AU)2.4323759
mean anomaly (°)232.77019
mean daily motion (°/day)0.25981120
aphelion distance (AU)2.718
period (years)3.79
P-vector [x]0.52922154
P-vector [y]-0.79939759
P-vector [z]-0.28440824
Q-vector [x]0.84602574
Q-vector [y]0.52265633
Q-vector [z]0.10521790
absolute magnitude15.82
phase slope0.15
uncertainty0
referenceMPEC 2024-F14
observations used1162
oppositions20
arc length (days)9480
first opposition used1998
last opposition used2024
residual rms (arc-secs)0.70
perturbers coarse indicatorM-v
perturbers precise indicator003Ek
first observation date used1998-04-03.0
last observation date used2024-03-17.0
computer nameMPCLINUX
JD of orbit computation2456966.922302
perihelion JD uncertainty (days)7.8353E-05
argument of perihelion uncertainty (°)3.7337E-05
ascending node uncertainty (°)3.0415E-05
inclination uncertainty (°)4.6898E-06
eccentricity uncertainty 3.3416E-08
perihelion distance uncertainty (AU)8.0124E-08
Minimum Orbit Intersection Distances (in AU)
for orbit epoch: 2460400.5, reference: E2024-G95
Mercury1.71021
Venus1.4241
Earth1.13443
Mars0.75555
Jupiter2.48865
Saturn6.36751
Uranus15.7846
Neptune27.3197

Observations

1188 total observations over interval: 1998 04 03.40954 – 2024 03 17.378464
These data are available for download (format description).

Date (UT) J2000 RA J2000 Dec Magn Location Ref
1998 04 03.40954 15 23 12.31 -07 48 25.3 20.1 V 691 – Steward Observatory, Kitt Peak-Spacewatch MPS 80093
1998 04 03.43074 15 23 11.92 -07 48 17.7 19.9 V 691 – Steward Observatory, Kitt Peak-Spacewatch MPS 80093
1998 04 03.45185 15 23 11.52 -07 48 10.4 19.5 V 691 – Steward Observatory, Kitt Peak-Spacewatch MPS 80093
1998 05 23.18362 14 46 29.24 -03 20 15.4 19.4   704 – Lincoln Laboratory ETS, New Mexico MPS 61230
1998 05 23.20333 14 46 28.31 -03 20 11.4 19.4   704 – Lincoln Laboratory ETS, New Mexico MPS 61230
1998 05 23.22315 14 46 27.18 -03 20 07.8 19.4   704 – Lincoln Laboratory ETS, New Mexico MPS 61230
1998 05 23.24316 14 46 26.22 -03 20 06.6 19.5   704 – Lincoln Laboratory ETS, New Mexico MPS 61230
1998 05 23.26288 14 46 24.96 -03 20 02.1 19.8   704 – Lincoln Laboratory ETS, New Mexico MPS 61230
1999 10 04.35331 02 20 51.31 +03 34 27.9 18.4 R 703 – Catalina Sky Survey MPS 15430
1999 10 04.36557 02 20 50.72 +03 34 24.3 18.5 R 703 – Catalina Sky Survey MPS 15430
1999 10 04.37766 02 20 50.17 +03 34 18.6 17.4 R 703 – Catalina Sky Survey MPS 15430
1999 10 04.38976 02 20 49.60 +03 34 13.6 17.1 R 703 – Catalina Sky Survey MPS 15430
1999 10 09.25185 02 17 16.15 +02 57 41.0 19.1   704 – Lincoln Laboratory ETS, New Mexico MPS 15430
1999 10 09.26729 02 17 15.43 +02 57 34.8 19.1   704 – Lincoln Laboratory ETS, New Mexico MPS 15430
1999 10 09.28285 02 17 14.69 +02 57 27.5 19.4   704 – Lincoln Laboratory ETS, New Mexico MPS 15430
1999 10 09.29831 02 17 13.93 +02 57 20.8 19.0   704 – Lincoln Laboratory ETS, New Mexico MPS 15430
1999 10 09.31374 02 17 13.17 +02 57 13.3 19.3   704 – Lincoln Laboratory ETS, New Mexico MPS 15430
2001 03 02.17607 08 46 09.03 +16 21 26.5 19.6 R 699 – Lowell Observatory-LONEOS MPS 61230
2001 03 02.20329 08 46 08.07 +16 21 35.5   699 – Lowell Observatory-LONEOS MPS 61230
2001 03 02.23057 08 46 06.93 +16 21 45.0   699 – Lowell Observatory-LONEOS MPS 61230
2001 03 02.25797 08 46 05.84 +16 21 52.4   699 – Lowell Observatory-LONEOS MPS 61230
2002 06 10.31839 17 02 06.03 -10 09 47.5 18.4   704 – Lincoln Laboratory ETS, New Mexico MPS 57904
2002 06 10.33292 17 02 05.17 -10 09 47.7 18.3   704 – Lincoln Laboratory ETS, New Mexico MPS 57904
2002 06 10.34693 17 02 04.39 -10 09 47.8 18.5   704 – Lincoln Laboratory ETS, New Mexico MPS 57904
2002 06 10.36096 17 02 03.52 -10 09 47.6 18.7   704 – Lincoln Laboratory ETS, New Mexico MPS 57904
2002 06 14.24276 16 58 23.85 -10 11 04.2 17.9   704 – Lincoln Laboratory ETS, New Mexico MPS 57904
2002 06 14.25669 16 58 23.04 -10 11 04.6 18.2   704 – Lincoln Laboratory ETS, New Mexico MPS 57904
2002 06 14.27046 16 58 22.23 -10 11 04.7 18.2   704 – Lincoln Laboratory ETS, New Mexico MPS 57904
2002 06 14.28422 16 58 21.45 -10 11 04.8 18.0   704 – Lincoln Laboratory ETS, New Mexico MPS 57904
2002 06 14.29801 16 58 20.65 -10 11 05.6 18.0   704 – Lincoln Laboratory ETS, New Mexico MPS 57904
2002 07 09.18621 16 40 19.01 -11 13 40.9 19.1   704 – Lincoln Laboratory ETS, New Mexico MPS 61230
2002 07 09.19882 16 40 18.65 -11 13 44.7 18.9   704 – Lincoln Laboratory ETS, New Mexico MPS 61230
2002 07 09.22403 16 40 17.98 -11 13 50.8 19.2   704 – Lincoln Laboratory ETS, New Mexico MPS 61230
2002 07 17.17328 16 37 56.48 -11 50 58.0 19.2   644 – Palomar Mountain/NEAT MPS 61230
2002 07 17.18427 16 37 56.35 -11 51 01.3 19.1   644 – Palomar Mountain/NEAT MPS 61230
2002 07 17.19527 16 37 56.23 -11 51 05.4 18.8   644 – Palomar Mountain/NEAT MPS 61230
2002 07 17.38081 16 37 54.24 -11 52 00.5 20.0   608 – Haleakala-AMOS MPS 61230
2002 07 17.39161 16 37 54.06 -11 52 03.7 20.5   608 – Haleakala-AMOS MPS 61230
2002 07 17.40252 16 37 53.92 -11 52 07.6 20.3   608 – Haleakala-AMOS MPS 61230
2002 07 23.17047 16 37 29.92 -12 22 59.2 19.4   644 – Palomar Mountain/NEAT MPS 61230
2002 07 23.18100 16 37 29.89 -12 23 02.7 19.4   644 – Palomar Mountain/NEAT MPS 61230
2002 07 23.19180 16 37 29.90 -12 23 06.1 19.5   644 – Palomar Mountain/NEAT MPS 61230
2003 09 29.39842 04 12 45.00 +11 23 21.4 19.3 R 699 – Lowell Observatory-LONEOS MPS 86223
2003 09 29.41254 04 12 44.91 +11 23 17.7   699 – Lowell Observatory-LONEOS MPS 86223
2003 09 29.42671 04 12 45.12 +11 23 14.1   699 – Lowell Observatory-LONEOS MPS 86223
2003 09 29.44082 04 12 45.10 +11 23 09.5   699 – Lowell Observatory-LONEOS MPS 86223
2003 10 21.49012 04 07 22.74 +09 43 24.5 19.6   644 – Palomar Mountain/NEAT MPS 88020
2003 10 21.50140 04 07 22.35 +09 43 21.0 19.3   644 – Palomar Mountain/NEAT MPS 88020
2003 10 21.51273 04 07 21.95 +09 43 17.9 19.5   644 – Palomar Mountain/NEAT MPS 88020
2003 10 29.37644 04 02 05.87 +09 04 36.9 18.7 R 699 – Lowell Observatory-LONEOS MPS 90834
2003 10 29.37727 04 02 05.89 +09 04 37.7 19.2 R 699 – Lowell Observatory-LONEOS MPS 90834
2003 10 29.38981 04 02 05.27 +09 04 34.0   699 – Lowell Observatory-LONEOS MPS 90834
2003 10 29.39063 04 02 05.18 +09 04 33.5   699 – Lowell Observatory-LONEOS MPS 90834
2003 10 29.40318 04 02 04.70 +09 04 30.3   699 – Lowell Observatory-LONEOS MPS 90834
2003 10 29.40400 04 02 04.64 +09 04 30.2   699 – Lowell Observatory-LONEOS MPS 90834
2003 10 29.41650 04 02 03.99 +09 04 25.3   699 – Lowell Observatory-LONEOS MPS 90834
2003 10 29.41734 04 02 04.04 +09 04 26.2   699 – Lowell Observatory-LONEOS MPS 90834
2003 11 01.31269 03 59 45.85 +08 50 29.5 18.7   704 – Lincoln Laboratory ETS, New Mexico MPS 89406
2003 11 01.32464 03 59 45.24 +08 50 26.1 19.7   704 – Lincoln Laboratory ETS, New Mexico MPS 89406
2003 11 01.33665 03 59 44.64 +08 50 22.6 18.8   704 – Lincoln Laboratory ETS, New Mexico MPS 89406
2003 11 01.34874 03 59 43.99 +08 50 19.1 19.3   704 – Lincoln Laboratory ETS, New Mexico MPS 89406
2003 11 01.36074 03 59 43.39 +08 50 15.4 19.6   704 – Lincoln Laboratory ETS, New Mexico MPS 89406
2003 11 16.29696 03 45 48.79 +07 46 42.5 19.4 V 703 – Catalina Sky Survey MPS 91619
2003 11 16.30720 03 45 48.21 +07 46 40.2 19.4 V 703 – Catalina Sky Survey MPS 91619
2003 11 16.31748 03 45 47.47 +07 46 37.2 19.5 V 703 – Catalina Sky Survey MPS 91619
2003 11 16.32778 03 45 46.94 +07 46 35.4 19.4 V 703 – Catalina Sky Survey MPS 91619
2003 11 18.35658 03 43 45.45 +07 39 34.5 20.6 V 691 – Steward Observatory, Kitt Peak-Spacewatch MPS 91619
2003 11 18.38467 03 43 43.73 +07 39 28.7 20.5 V 691 – Steward Observatory, Kitt Peak-Spacewatch MPS 91619
2003 11 18.41289 03 43 41.98 +07 39 22.8 19.7 V 691 – Steward Observatory, Kitt Peak-Spacewatch MPS 91619
2003 11 23.29742 03 38 51.25 +07 24 41.5 18.9 R 699 – Lowell Observatory-LONEOS MPS 93371
2003 11 23.31064 03 38 50.43 +07 24 39.4   699 – Lowell Observatory-LONEOS MPS 93371
2003 11 23.32388 03 38 49.63 +07 24 36.7   699 – Lowell Observatory-LONEOS MPS 93371
2003 11 23.33706 03 38 48.80 +07 24 35.5   699 – Lowell Observatory-LONEOS MPS 93371
2003 11 30.19111 03 32 17.99 +07 09 50.4 19.9 V 703 – Catalina Sky Survey MPS 93371
2003 11 30.23024 03 32 15.74 +07 09 46.3 19.6 V 703 – Catalina Sky Survey MPS 93371
2003 11 30.24735 03 32 14.83 +07 09 44.6 19.9 V 703 – Catalina Sky Survey MPS 93371
2003 11 30.26441 03 32 13.75 +07 09 42.3 19.1 V 703 – Catalina Sky Survey MPS 93371
2003 12 01.18314 03 31 24.20 +07 08 18.9 19.8 V 291 – LPL/Spacewatch II MPS 93371
2003 12 01.18700 03 31 23.98 +07 08 18.6 19.7 V 291 – LPL/Spacewatch II MPS 93371
2003 12 01.19075 03 31 23.76 +07 08 18.3 19.8 V 291 – LPL/Spacewatch II MPS 93371
2003 12 22.26227 03 17 06.17 +07 14 09.6 20.1 V 691 – Steward Observatory, Kitt Peak-Spacewatch MPS 95599
2003 12 22.29495 03 17 05.30 +07 14 13.5 19.9 V 691 – Steward Observatory, Kitt Peak-Spacewatch MPS 95599
2003 12 22.32306 03 17 04.55 +07 14 16.8 20.2 V 691 – Steward Observatory, Kitt Peak-Spacewatch MPS 95599
2005 02 02.37619 10 47 05.57 +08 02 35.8 20.3   704 – Lincoln Laboratory ETS, New Mexico MPS 126255
2005 02 02.39005 10 47 04.94 +08 02 40.3 19.8   704 – Lincoln Laboratory ETS, New Mexico MPS 126255
2005 02 02.40294 10 47 04.44 +08 02 45.6 19.6   704 – Lincoln Laboratory ETS, New Mexico MPS 126255
2005 02 09.35041 10 42 12.80 +08 51 13.8 19.1   704 – Lincoln Laboratory ETS, New Mexico MPS 126657
2005 02 09.36319 10 42 12.12 +08 51 19.7 19.4   704 – Lincoln Laboratory ETS, New Mexico MPS 126657
